Stations météo

Publicité
Lentran, Grande-Bretagne (99125): Température de l'air & dewpoint: 13.11.2017 20:00:00 - 19.11.2017 20:00:00 (GMT)Lentran, Grande-Bretagne (99125): Quantités de précipitations: 13.11.2017 20:00:00 - 19.11.2017 20:00:00 (GMT)
Date & Time tt [°C] td [°C] rr [mm]
19.11.2017 20:00:00 - - -
19.11.2017 19:00:00 2,4 1,7 0,0
19.11.2017 18:00:00 2,2 1,6 0,0
19.11.2017 17:00:00 2,3 1,7 0,0
19.11.2017 16:00:00 2,7 1,6 0,0
19.11.2017 15:00:00 3,7 1,5 0,0
19.11.2017 14:00:00 4,3 2,0 0,0
19.11.2017 13:00:00 3,8 1,9 0,0
19.11.2017 12:00:00 - - 0,0
19.11.2017 11:00:00 2,0 0,5 0,0
19.11.2017 10:00:00 3,2 1,7 0,0
19.11.2017 09:00:00 2,7 1,5 0,0
19.11.2017 08:00:00 2,7 1,6 0,2
19.11.2017 07:00:00 2,8 1,4 0,0
19.11.2017 06:00:00 2,3 1,2 0,0
19.11.2017 05:00:00 1,6 1,0 0,0
19.11.2017 04:00:00 1,9 0,7 0,0
19.11.2017 03:00:00 2,1 0,8 0,0
19.11.2017 02:00:00 1,5 0,6 -
19.11.2017 01:00:00 1,7 1,1 0,0
19.11.2017 00:00:00 2,9 1,6 0,0
18.11.2017 23:00:00 2,5 1,3 0,0
18.11.2017 22:00:00 3,0 1,8 0,0
18.11.2017 21:00:00 2,9 2,1 0,4
18.11.2017 20:00:00 3,0 2,1 0,2
18.11.2017 19:00:00 3,2 2,0 0,0
18.11.2017 18:00:00 3,4 1,1 0,0
18.11.2017 17:00:00 3,7 0,2 0,0
18.11.2017 16:00:00 4,2 -0,5 0,0
18.11.2017 15:00:00 4,1 -0,4 0,0
18.11.2017 14:00:00 4,8 -1,5 0,0
18.11.2017 13:00:00 4,9 -1,3 0,0
18.11.2017 12:00:00 4,5 -1,5 0,0
18.11.2017 11:00:00 4,0 -1,3 0,0
18.11.2017 10:00:00 3,6 -1,2 0,0
18.11.2017 09:00:00 3,1 -2,1 0,0
18.11.2017 08:00:00 2,6 -0,5 0,0
18.11.2017 07:00:00 2,4 -0,4 0,0
18.11.2017 06:00:00 2,0 0,3 0,0
18.11.2017 05:00:00 2,0 0,8 0,4
18.11.2017 04:00:00 2,9 0,6 0,0
18.11.2017 03:00:00 2,7 1,3 0,4
18.11.2017 02:00:00 3,0 1,2 0,2
18.11.2017 01:00:00 3,2 2,3 0,4
18.11.2017 00:00:00 3,4 2,6 0,8
17.11.2017 23:00:00 4,4 3,4 0,6
17.11.2017 22:00:00 4,7 3,9 1,2
17.11.2017 21:00:00 5,1 3,3 0,0
17.11.2017 20:00:00 5,4 3,9 0,4
17.11.2017 19:00:00 5,4 3,5 0,2
17.11.2017 18:00:00 6,3 3,3 0,0
17.11.2017 17:00:00 6,0 3,1 0,0
17.11.2017 16:00:00 5,8 2,8 0,0
17.11.2017 15:00:00 6,5 3,3 0,0
17.11.2017 14:00:00 6,3 2,8 0,0
17.11.2017 13:00:00 6,9 2,6 0,0
17.11.2017 12:00:00 6,7 2,6 0,0
17.11.2017 11:00:00 6,3 2,5 0,0
17.11.2017 10:00:00 6,2 2,7 0,0
17.11.2017 09:00:00 5,8 2,7 0,0
17.11.2017 08:00:00 5,7 2,6 0,0
17.11.2017 07:00:00 5,8 2,4 0,0
17.11.2017 06:00:00 5,5 2,3 0,0
17.11.2017 05:00:00 5,1 2,2 0,0
17.11.2017 04:00:00 5,2 1,8 0,0
17.11.2017 03:00:00 4,9 1,5 0,0
17.11.2017 02:00:00 5,0 1,2 0,0
17.11.2017 01:00:00 4,8 0,4 0,0
17.11.2017 00:00:00 4,5 0,3 0,0
16.11.2017 23:00:00 4,1 0,6 0,0
16.11.2017 22:00:00 4,0 0,6 0,0
16.11.2017 21:00:00 3,6 0,9 0,0
16.11.2017 20:00:00 2,9 0,8 0,0
16.11.2017 19:00:00 4,1 0,8 -
16.11.2017 18:00:00 4,3 0,2 0,0
16.11.2017 17:00:00 4,4 0,6 -
16.11.2017 16:00:00 3,7 0,9 0,0
16.11.2017 15:00:00 4,3 0,9 0,0
16.11.2017 14:00:00 3,8 1,7 0,0
16.11.2017 13:00:00 5,3 1,0 0,0
16.11.2017 12:00:00 4,3 1,8 0,4
16.11.2017 11:00:00 3,5 2,0 0,2
16.11.2017 10:00:00 3,1 1,7 0,0
16.11.2017 09:00:00 2,4 1,6 0,6
16.11.2017 08:00:00 3,9 2,3 0,0
16.11.2017 07:00:00 4,4 3,3 0,4
16.11.2017 06:00:00 5,9 5,1 1,0
16.11.2017 05:00:00 6,2 5,4 1,8
16.11.2017 04:00:00 7,2 6,2 2,4
16.11.2017 03:00:00 9,9 8,0 0,0
16.11.2017 02:00:00 9,8 7,5 0,0
16.11.2017 01:00:00 9,4 7,6 0,0
16.11.2017 00:00:00 8,5 6,8 0,0
15.11.2017 23:00:00 8,2 6,6 0,0
15.11.2017 22:00:00 8,0 5,5 0,0
15.11.2017 21:00:00 7,5 4,6 0,0
15.11.2017 20:00:00 7,3 4,0 0,0
15.11.2017 19:00:00 7,0 3,8 0,0
15.11.2017 18:00:00 5,7 4,1 0,0
15.11.2017 17:00:00 6,7 4,1 0,0
15.11.2017 16:00:00 6,8 4,1 0,0
15.11.2017 15:00:00 6,1 5,1 0,0
15.11.2017 14:00:00 6,5 4,9 0,0
15.11.2017 13:00:00 6,4 4,7 0,0
15.11.2017 12:00:00 4,8 3,1 0,0
15.11.2017 11:00:00 4,1 3,6 0,0
15.11.2017 10:00:00 2,9 2,4 0,0
15.11.2017 09:00:00 2,6 0,9 0,0
15.11.2017 08:00:00 2,3 1,2 0,0
15.11.2017 07:00:00 3,0 1,4 0,0
15.11.2017 06:00:00 3,2 1,4 0,0
15.11.2017 05:00:00 4,1 1,8 0,0
15.11.2017 04:00:00 3,9 2,6 0,0
15.11.2017 03:00:00 - - 0,0
15.11.2017 02:00:00 5,8 2,7 -
15.11.2017 01:00:00 6,6 4,0 0,2
15.11.2017 00:00:00 6,2 4,3 0,0
14.11.2017 23:00:00 6,1 3,7 0,0
14.11.2017 22:00:00 7,0 3,5 0,0
14.11.2017 21:00:00 6,1 3,2 0,0
14.11.2017 20:00:00 6,5 3,6 0,0
14.11.2017 19:00:00 6,0 2,4 0,0
14.11.2017 18:00:00 5,8 2,1 0,0
14.11.2017 17:00:00 6,9 2,8 -
14.11.2017 16:00:00 6,9 3,9 0,0
14.11.2017 15:00:00 7,9 4,1 0,0
14.11.2017 14:00:00 8,7 4,9 0,0
14.11.2017 13:00:00 8,1 4,6 0,0
14.11.2017 12:00:00 - - 0,0
14.11.2017 11:00:00 7,1 4,3 0,0
14.11.2017 10:00:00 6,9 4,3 0,0
14.11.2017 09:00:00 - - 0,0
14.11.2017 08:00:00 6,4 5,1 0,0
14.11.2017 07:00:00 5,6 4,8 0,0
14.11.2017 06:00:00 6,8 5,7 0,0
14.11.2017 05:00:00 6,4 5,1 0,2
14.11.2017 04:00:00 7,3 6,4 -
14.11.2017 03:00:00 7,5 6,0 0,0
14.11.2017 02:00:00 7,3 5,8 0,0
14.11.2017 01:00:00 7,4 6,5 0,0
14.11.2017 00:00:00 7,4 6,4 0,2
13.11.2017 23:00:00 7,6 5,7 0,0
13.11.2017 22:00:00 8,7 8,0 0,2
13.11.2017 21:00:00 8,6 8,2 0,4
13.11.2017 20:00:00 8,6 7,6 0,0

tt = Température de l'air
td = dewpoint
rr = Quantités de précipitations

stations d'obs. à proximité